Location: Unspecified
(58.7730°N, 5.8460°E)
Time: 10:46:44
(UTC+02:00)

Resurs 1-4 Rocket - Visible Passes

Search period start: 21 June 2018 00:00
Search period end: 01 July 2018 00:00
Orbit: 800 x 813 km, 98.5° (Epoch: 20 June)

Date Brightness Start Highest point End Pass type
(mag) Time Alt. Az. Time Alt. Az. Time Alt. Az.
21 Jun 3.6 02:53:31 10° NNE 02:58:14 30° E 03:02:54 10° SSE visible
22 Jun 4.1 02:29:16 10° NE 02:33:20 22° E 02:37:22 10° SE visible
23 Jun 4.4 02:05:21 10° NE 02:08:21 15° E 02:11:21 10° ESE visible
25 Jun 3.6 02:55:01 10° NNE 02:59:46 31° E 03:04:29 10° SSE visible
26 Jun 4.0 02:30:46 10° NE 02:34:53 22° E 02:38:58 10° SE visible
27 Jun 4.4 02:06:48 10° NE 02:09:55 15° E 02:13:00 10° ESE visible
28 Jun 4.7 01:44:11 10° ENE 01:44:51 10° ENE 01:45:30 10° E visible
29 Jun 3.5 02:56:33 10° NNE 03:01:19 32° E 03:06:03 10° SSE visible
30 Jun 4.0 02:32:15 10° NE 02:36:26 23° E 02:40:35 10° SE visible
